Regional Weather Roundup
Issued by NWS

Home | Current Version | Previous Version | Graphics & Text | Print | Product List | Glossary On
Versions: 1 2 3 4 5 6 7 8 9 10 11 12 13 14 15 16 17 18 19 20 21 22 23 24 25 26 27 28 29 30 31 32 33 34 35 36 37 38 39 40 41 42 43 44 45 46 47 48 49 50
000
ASUS43 KOAX 151302
RWRNE

WEATHER ROUNDUP FOR NEBRASKA
NATIONAL WEATHER SERVICE OMAHA NE
800 AM CDT TUE APR 15 2014

NOTES: SATELLITE DATA IS BEING USED TO AUGMENT CLOUD COVER ABOVE
       12000 FEET.
       "FAIR" INDICATES FEW OR NO CLOUDS BELOW 12,000 FEET WITH NO
       SIGNIFICANT WEATHER AND/OR OBSTRUCTIONS TO VISIBILITY.

  * THESE STATIONS DO NOT REPORT WEATHER SUCH AS RAIN...SNOW OR FOG.

NEZ001>004-019>022-054>056-151400-
NEBRASKA PANHANDLE

CITY           SKY/WX    TMP DP  RH WIND       PRES   REMARKS
SCOTTSBLUFF    PTCLDY    25  19  78 NE3       29.92F
ALLIANCE       CLEAR     26  19  74 SW5       29.90F WCI  20
CHADRON        CLEAR     27  22  81 SW5       29.86F WCI  22
KIMBALL        CLEAR     30  19  63 W14       29.93S WCI  20
SIDNEY         CLEAR     26  20  77 SW8       29.95F WCI  18
$$

NEZ057>060-069>072-079>082-151400-
SOUTHWEST NEBRASKA

CITY           SKY/WX    TMP DP  RH WIND       PRES   REMARKS
NORTH PLATTE   CLEAR     22  17  81 E6        30.03F WCI  14
IMPERIAL       CLEAR     30  20  66 S8        30.02F WCI  22
LEXINGTON      SUNNY     27  21  77 SE6       30.09S WCI  21
MCCOOK         CLEAR     25  23  92 SW5       30.08F WCI  19
OGALLALA       CLEAR     22  19  89 W3        30.00S
$$

NEZ005>010-023>029-035>040-094-151400-
NORTH CENTRAL NEBRASKA

CITY           SKY/WX    TMP DP  RH WIND       PRES   REMARKS
VALENTINE      CLEAR     27  16  63 S7        29.96F WCI  19
AINSWORTH      SUNNY     27  18  69 S16       29.98F WCI  15
BROKEN BOW     SUNNY     21  18  88 S7        30.06F WCI  12
O`NEILL        SUNNY     23  15  71 SE5       30.08F WCI  16
ORD            SUNNY     23  19  85 CALM      30.09F
THEDFORD       CLEAR     28  19  69 S8        29.98F WCI  20
$$

NEZ041-046>049-061>064-073>077-083>087-151400-
SOUTH CENTRAL NEBRASKA

CITY           SKY/WX    TMP DP  RH WIND       PRES   REMARKS
GRAND ISLAND   SUNNY     30  25  81 S7        30.14F WCI  23
AURORA         SUNNY     29  26  92 SE3       30.15F
HASTINGS       SUNNY     30  25  81 S7        30.13F WCI  23
HEBRON         SUNNY     24  23  93 CALM      30.19S
HOLDREGE       SUNNY     27  21  77 SE5       30.10S WCI  22
YORK           MOSUNNY   28  28 100 S5        30.17F WCI  23
$$

NEZ011>018-030>034-042>045-151400-
NORTHEAST NEBRASKA

CITY           SKY/WX    TMP DP  RH WIND       PRES   REMARKS
NORFOLK        SUNNY     25  20  81 SE6       30.15S WCI  18
ALBION         SUNNY     24  18  78 SE3       30.13F
BLAIR          SUNNY     26  19  73 NE7       30.18R WCI  19
COLUMBUS *     SUNNY     25  19  80 CALM      30.18R
FREMONT        SUNNY     26  19  77 CALM      30.19S
TEKAMAH        SUNNY     25  19  78 CALM      30.21R
$$

NEZ050>053-065>068-078-088>093-151400-
SOUTHEAST NEBRASKA

CITY           SKY/WX    TMP DP  RH WIND       PRES   REMARKS
LINCOLN        SUNNY     27  22  81 W3        30.21R
OMAHA EPPLEY   SUNNY     27  21  78 N5        30.21R WCI  22
BEATRICE       FOG       23  21  93 CALM      30.20R VSB 3/4
FALLS CITY     SUNNY     29  25  85 W6        30.22R WCI  23
NEBRASKA CITY  SUNNY     29  24  81 CALM      30.20R
PLATTSMOUTH    SUNNY     29  22  76 CALM      30.19S
$$

NEZ044-045-051>053-067-151400-
OMAHA AREA

CITY           SKY/WX    TMP DP  RH WIND       PRES   REMARKS
OMAHA EPPLEY   SUNNY     27  21  78 N5        30.21R WCI  22
BLAIR          SUNNY     26  19  73 NE7       30.18R WCI  19
FREMONT        SUNNY     26  19  77 CALM      30.19S
MILLARD        SUNNY     27  19  72 CALM      30.20S
OFFUTT AFB     SUNNY     28  26  92 CALM      30.20R
PLATTSMOUTH    SUNNY     29  22  76 CALM      30.19S
WAHOO          FAIR      24  19  82 CALM      30.19S
$$



USA.gov is the U.S. government's official web portal to all federal, state and local government web resources and services.